GFSNGP_850_thetae_021.txt.gz
Theta_e
330 328 327 325 324 324 326 327 329 328 331 333 335 336 339 336 338 338 339 341 339 338 339 340 341 341 341 344 346 348 349 349 349 347 346 348 344 331 327 335 333 331 321 326
331 330 327 326 326 325 325 325 327 328 332 333 334 333 333 336 337 340 339 337 337 337 338 339 339 340 342 344 345 347 348 349 349 349 349 349 348 341 336 333 338 334 328 326
328 328 326 326 327 326 326 327 327 330 331 335 333 334 334 333 336 335 336 337 337 338 338 339 340 341 341 343 344 344 345 346 346 347 348 349 349 345 337 338 336 335 332 327
331 326 326 326 327 327 327 327 328 328 332 334 334 334 335 334 335 334 337 338 338 338 338 339 339 340 341 342 342 343 343 344 346 347 348 348 348 348 343 340 337 339 332 325
333 331 328 331 334 327 325 329 330 331 333 335 333 331 334 330 330 332 334 336 337 338 338 339 339 339 340 338 337 339 340 342 344 346 348 348 347 346 338 336 339 333 330 325
333 331 331 332 333 333 334 331 335 335 337 337 334 336 338 330 330 332 333 336 337 338 338 339 339 336 331 332 334 334 336 340 344 346 348 348 347 344 337 334 335 336 333 330
337 333 332 334 333 333 336 336 334 333 335 334 337 336 334 331 333 333 336 337 337 336 333 331 330 330 330 331 332 331 333 343 346 346 348 347 345 343 338 338 336 338 334 333
340 338 335 331 333 338 335 333 333 333 334 334 335 337 338 339 340 337 334 333 332 331 330 331 332 333 332 333 334 337 343 344 343 346 346 345 344 343 340 338 338 335 334 333
337 336 331 328 332 330 330 332 334 338 339 339 339 340 339 335 333 332 332 331 331 330 330 331 336 335 334 335 337 337 345 344 342 344 344 343 343 341 341 339 337 336 333 332
337 334 329 327 326 325 325 326 327 328 330 333 335 336 337 335 334 332 331 330 330 327 328 332 337 339 339 338 343 344 342 341 344 343 343 341 340 339 338 338 336 334 326 327
334 331 328 325 326 326 325 324 323 324 326 331 334 336 335 337 335 335 336 334 332 332 334 338 341 338 340 340 339 335 340 342 341 340 339 338 337 336 334 332 328 327 328 327
336 331 330 327 325 323 322 323 323 322 322 324 323 327 328 332 336 339 338 336 334 334 336 334 339 339 339 339 336 338 339 338 337 337 336 334 330 328 327 327 327 327 328 328
330 329 325 324 321 319 318 318 318 319 319 319 320 322 322 324 328 335 338 340 341 338 335 337 339 339 338 337 337 338 336 327 327 325 330 330 327 326 326 326 329 329 328 328
321 321 320 319 317 317 318 317 317 316 316 316 316 317 319 321 322 322 327 336 340 337 336 335 336 337 337 336 334 328 329 331 329 322 324 325 326 329 327 328 328 326 326 324
318 318 317 318 318 316 316 315 314 315 317 317 316 315 313 314 319 321 322 323 328 337 336 335 335 336 336 333 331 328 331 326 324 323 324 327 328 327 326 326 325 323 323 322
320 319 318 316 316 315 315 315 315 317 317 316 316 316 316 316 314 315 319 322 322 331 336 335 334 334 334 333 332 331 326 324 324 325 323 322 324 325 325 324 323 323 321 320
319 320 321 321 320 318 319 318 319 320 319 319 317 317 316 316 316 316 314 319 324 330 334 333 332 331 331 331 329 326 325 325 323 322 323 323 324 324 324 323 322 320 318 314
319 320 320 319 321 321 320 320 321 321 319 319 319 319 318 318 318 317 316 322 328 329 333 331 328 327 328 328 328 327 327 327 326 326 323 324 324 322 322 321 319 318 316 313
320 320 320 320 321 321 321 321 320 319 320 320 322 322 322 321 319 319 327 330 328 330 331 329 328 328 329 327 326 325 324 324 325 325 324 324 324 322 322 318 316 315 316 314
318 319 320 320 320 320 321 321 320 320 320 320 321 323 323 324 325 326 326 325 325 324 325 325 325 326 326 325 324 324 323 321 321 321 322 322 322 323 320 319 317 315 316 314
317 317 317 318 319 319 319 320 320 320 321 321 321 320 322 323 323 323 322 323 322 322 323 323 322 322 322 321 320 319 319 320 321 322 322 321 321 322 321 319 318 317 314 311
315 315 315 315 315 316 316 318 320 320 319 319 320 321 321 321 321 320 320 321 319 318 317 316 315 315 316 317 318 318 317 319 320 321 322 321 320 321 319 318 317 314 313 313
315 315 315 315 315 314 313 313 315 318 319 319 319 319 319 320 320 321 321 320 317 315 314 313 312 312 312 313 317 318 317 315 313 313 314 314 316 315 317 317 313 313 313 312
315 314 314 314 314 314 314 314 313 313 314 314 315 318 318 317 319 320 318 319 316 316 315 314 313 312 311 310 311 312 313 312 311 311 311 312 312 312 313 314 315 315 314 314
315 315 315 315 314 313 313 315 314 314 314 314 313 314 314 313 312 313 315 317 316 316 316 315 314 313 312 310 310 309 309 309 309 308 308 307 308 311 312 311 311 311 312 311
315 315 315 315 315 313 312 312 314 315 314 313 313 313 313 313 313 313 313 315 316 316 316 316 314 314 314 313 312 310 309 309 309 309 308 307 306 307 307 307 306 306 307 307
314 313 314 315 314 312 311 311 312 312 312 312 312 312 313 313 313 313 313 314 313 313 312 312 312 312 311 313 313 312 312 311 311 310 309 309 306 306 306 307 306 306 306 306

GFSNGP_850_thetae_024.txt.gz
Theta_e
330 330 329 328 326 325 326 328 331 332 334 335 336 335 334 333 332 334 343 346 347 347 349 352 353 353 355 355 355 354 355 356 357 356 352 347 343 341 342 332 327 324 329 335
333 331 330 329 329 328 327 326 327 329 331 333 333 332 333 332 332 334 340 346 347 348 349 352 354 355 356 355 355 355 356 357 357 354 350 349 347 343 345 341 331 327 326 333
335 333 333 333 331 330 330 328 327 328 329 330 331 333 333 334 334 335 335 343 346 348 348 352 354 356 356 356 355 355 354 357 355 351 348 348 348 347 346 343 332 327 327 335
335 334 335 333 332 332 331 330 329 328 328 329 330 331 331 334 335 337 337 338 345 347 348 352 352 354 353 354 353 349 354 349 351 347 345 346 347 347 347 346 340 332 329 331
337 337 334 332 331 332 332 332 331 329 329 329 330 332 335 336 337 338 339 340 343 346 348 351 350 351 348 353 352 355 350 348 342 341 344 345 347 346 344 342 339 336 335 334
339 337 337 340 338 336 337 336 331 330 330 331 330 334 337 336 338 336 337 341 345 345 346 349 349 350 349 353 351 343 338 340 339 341 345 346 346 346 346 343 341 339 339 339
337 338 337 338 335 336 337 336 339 331 330 330 333 334 340 339 339 340 342 344 345 346 347 349 350 352 352 349 346 350 352 343 340 341 342 346 347 346 346 344 340 339 338 338
337 339 340 334 336 338 341 340 338 338 338 337 338 340 341 343 343 344 346 346 349 350 350 349 351 351 352 353 343 336 333 335 338 343 346 346 347 345 345 344 341 340 339 338
339 339 335 332 335 334 336 338 342 340 339 340 340 342 343 343 345 345 346 346 347 348 348 348 344 338 335 333 334 334 333 336 342 345 346 344 345 344 342 342 341 340 339 338
338 334 334 331 329 330 331 333 335 340 341 341 340 340 340 341 341 342 342 342 343 343 341 338 334 333 335 335 335 336 341 345 345 345 343 343 343 342 341 340 340 339 338 336
336 333 329 329 330 328 327 329 331 334 338 340 342 343 344 344 344 344 343 345 345 345 333 334 336 337 337 336 338 340 344 343 342 343 342 343 342 341 340 339 338 338 334 331
336 331 331 330 327 327 328 328 328 328 330 331 332 334 338 343 344 344 339 336 334 336 338 340 341 340 338 341 342 343 342 342 341 340 339 339 337 336 334 330 330 329 329 330
334 331 327 325 321 321 322 322 323 323 323 324 326 328 330 335 340 343 344 343 341 335 338 341 340 340 341 338 334 334 342 341 338 337 336 335 333 331 329 327 327 327 327 328
330 327 323 321 319 320 319 319 319 318 317 319 321 323 324 328 329 331 341 342 339 339 342 344 343 339 339 338 337 336 333 332 334 333 330 330 330 330 330 328 327 328 328 327
321 321 319 318 317 319 320 319 319 320 320 320 315 316 317 321 321 329 334 338 341 342 340 341 341 337 336 335 333 333 333 331 330 330 330 329 330 331 330 328 327 323 326 324
318 318 320 319 318 320 321 321 320 320 321 321 322 318 318 314 321 322 326 333 334 337 341 340 340 337 335 334 332 333 332 329 330 330 330 331 330 328 327 327 326 324 322 322
317 317 316 316 321 322 321 322 322 322 322 322 321 321 322 322 322 324 325 329 334 337 338 338 339 336 335 334 334 334 331 328 329 329 327 327 327 327 326 326 325 324 324 322
321 320 321 322 322 322 323 323 323 324 325 325 326 326 326 325 325 325 327 331 334 334 335 334 333 333 334 334 333 332 330 329 328 329 329 328 328 327 326 325 324 324 322 320
322 322 323 323 323 324 324 324 323 323 324 326 326 327 326 326 327 328 332 332 334 333 332 330 328 332 333 331 331 330 330 330 329 329 328 328 326 326 325 325 324 323 321 320
321 322 322 322 323 324 324 324 324 324 325 325 327 327 327 328 329 329 329 329 329 330 331 328 331 331 331 326 326 329 329 328 328 328 328 326 326 325 325 324 323 321 320 319
319 318 319 320 321 322 324 324 324 324 324 325 325 326 326 327 327 327 326 327 329 326 325 327 327 327 326 324 325 325 325 325 325 326 326 324 325 324 324 324 322 320 319 318
318 318 318 318 317 318 319 321 323 323 323 323 324 325 325 325 325 325 325 325 322 323 323 323 322 319 318 319 321 320 321 322 323 323 324 324 324 324 324 323 321 319 319 316
318 318 317 318 318 318 318 318 318 319 320 321 321 322 322 322 323 323 324 321 320 317 319 319 313 313 313 317 317 317 317 316 316 316 317 319 320 321 321 321 319 318 317 315
319 318 319 319 318 317 317 319 318 318 318 317 317 320 320 319 321 321 321 319 316 317 318 317 316 313 313 314 314 313 313 314 314 314 314 314 313 314 316 318 319 319 316 314
320 320 319 319 317 316 316 318 318 317 317 316 316 316 317 316 316 315 316 318 318 317 319 318 316 314 313 314 313 313 312 311 310 310 310 310 310 311 312 313 315 315 316 316
319 317 317 319 318 316 315 314 314 315 315 315 315 315 315 316 316 316 316 316 316 316 315 316 317 316 315 314 314 313 313 311 311 311 310 310 309 309 309 311 312 312 312 312
314 313 315 315 315 314 314 314 314 315 315 315 315 315 315 315 315 315 315 315 316 316 316 316 315 315 315 314 314 314 314 313 312 312 311 311 311 310 308 309 309 309 309 309

GFSNGP_850_thetae_030.txt.gz
Theta_e
331 329 331 332 332 330 331 332 333 333 339 338 339 343 341 339 338 338 337 338 338 341 343 343 351 350 350 350 351 352 356 357 356 353 352 350 353 354 353 350 346 345 345 343
331 330 330 332 332 332 332 331 331 332 333 335 338 338 342 337 337 339 337 335 340 341 344 340 350 352 351 352 352 351 353 354 354 359 358 358 358 358 358 357 355 352 348 346
334 332 331 332 334 333 331 332 331 332 334 336 336 338 342 340 336 341 339 335 337 345 345 346 351 352 354 353 354 352 351 352 354 357 359 359 359 359 359 358 357 355 353 348
334 335 336 332 332 332 333 331 330 331 332 333 335 334 332 332 335 337 338 337 336 335 345 347 350 354 356 356 355 355 353 356 356 359 360 361 361 360 360 359 358 356 352 346
335 333 332 332 333 333 333 336 333 333 334 333 330 330 332 330 331 332 333 335 337 336 335 344 350 352 355 359 357 357 358 358 361 361 364 363 361 360 359 357 356 354 350 346
334 333 334 335 332 333 333 337 337 335 336 334 336 335 334 331 330 330 330 330 335 334 334 334 346 352 355 357 361 359 361 359 363 364 365 362 359 360 356 356 355 351 349 345
332 333 332 332 333 336 340 343 344 341 340 338 340 341 341 338 335 329 329 330 330 330 337 336 347 354 357 358 362 362 363 364 364 365 363 361 360 354 353 353 351 349 346 345
333 336 335 335 338 338 346 345 345 344 342 341 340 339 338 339 335 341 342 342 340 340 339 349 351 354 360 363 364 363 364 365 365 363 361 359 353 347 348 349 350 347 345 344
334 335 342 336 343 342 341 341 343 342 341 340 340 339 336 346 346 345 346 348 348 345 349 358 357 357 362 363 363 363 363 363 362 360 355 353 354 353 351 348 347 346 343 341
333 333 340 338 336 339 340 341 342 342 341 341 341 340 343 347 349 349 351 354 352 354 358 360 360 361 362 363 362 361 360 359 356 353 353 353 348 347 348 346 345 343 343 342
337 344 339 338 337 338 339 342 343 346 347 349 350 351 351 352 351 352 354 357 357 358 359 362 362 362 361 360 358 357 356 355 355 352 351 348 348 346 345 344 342 342 342 342
342 330 332 338 336 338 338 339 340 342 344 346 348 348 349 350 350 352 354 355 356 358 359 360 360 357 355 355 354 353 352 352 350 349 348 347 346 345 344 341 341 342 340 338
328 329 328 333 330 331 330 332 334 335 335 337 342 345 345 345 346 347 349 350 350 349 350 350 352 354 355 354 351 344 339 345 347 346 343 341 340 340 339 337 337 336 336 335
323 326 326 324 325 325 324 325 325 326 327 329 331 336 342 342 344 345 347 346 347 348 348 349 350 351 351 349 347 348 345 343 343 344 344 342 339 336 335 332 329 331 332 329
328 324 322 322 323 323 324 323 324 324 324 324 326 325 328 336 340 342 345 346 345 348 347 347 348 347 348 349 347 344 343 343 342 342 340 339 336 335 333 331 330 326 327 326
322 322 323 323 324 324 322 321 324 325 323 322 325 324 324 327 329 332 338 341 342 344 344 346 345 345 343 342 341 338 337 338 335 334 333 333 332 332 332 331 331 329 322 323
322 323 324 322 321 323 322 324 322 322 327 326 324 325 326 325 326 328 331 339 340 341 340 342 343 341 340 338 338 337 334 334 333 333 331 331 332 332 331 330 330 328 326 324
317 318 321 323 324 322 325 325 323 320 321 327 328 328 327 330 330 324 331 335 335 335 334 337 338 338 339 338 338 336 333 330 331 332 332 331 331 330 329 329 329 328 327 325
320 320 321 319 318 317 321 323 322 325 327 326 327 328 329 326 328 332 332 333 330 329 327 323 324 327 336 336 336 336 334 332 329 331 331 331 330 330 330 328 327 327 326 325
324 324 324 326 325 325 325 325 325 326 327 327 327 328 329 331 329 329 330 330 328 330 332 333 333 333 334 334 332 333 332 331 330 330 330 326 329 328 328 327 327 325 325 324
321 321 323 323 324 324 324 324 324 325 325 326 326 327 327 328 329 329 329 330 330 331 329 331 330 330 330 329 329 327 328 328 330 330 329 328 328 327 327 327 326 325 325 324
320 320 320 320 320 320 321 322 323 323 323 324 325 325 326 327 327 326 326 326 326 326 326 324 326 325 323 323 324 324 326 326 325 325 325 325 326 325 325 325 325 325 324 323
319 320 319 320 320 320 320 319 319 320 320 321 323 324 323 323 324 325 323 322 321 322 322 320 317 319 318 321 321 321 322 321 321 322 324 325 324 323 322 322 322 323 323 323
320 319 320 319 319 319 320 320 320 320 320 320 320 321 322 322 322 322 320 319 319 320 320 317 319 315 310 317 318 318 317 317 318 318 318 318 319 319 321 322 321 320 322 321
319 319 319 317 318 317 318 318 320 318 319 319 319 319 318 318 318 317 320 320 317 315 318 318 317 316 316 315 316 317 316 316 315 314 314 314 315 315 314 314 315 319 320 319
316 317 316 315 315 315 316 316 317 317 318 317 317 316 317 317 317 318 317 317 318 318 317 318 318 318 318 318 317 317 316 316 315 314 314 313 312 313 313 312 312 312 314 315
314 314 315 314 313 313 313 313 314 314 314 315 314 314 315 316 317 316 317 317 317 317 317 317 318 317 317 317 318 318 317 317 317 316 315 316 315 314 314 314 313 312 312 313

GFSNGP_850_thetae_033.txt.gz
Theta_e
326 328 329 328 329 328 326 325 324 323 324 326 328 338 338 339 339 338 338 340 339 346 347 347 348 347 347 349 349 346 346 346 345 343 343 343 342 342 344 348 347 348 347 346
329 328 327 328 328 328 328 327 326 326 327 329 328 339 340 339 338 339 341 340 339 343 348 348 347 347 346 347 350 347 345 345 345 339 341 342 343 343 345 350 352 351 353 352
328 329 330 329 327 327 329 329 328 327 326 328 328 332 335 339 338 337 337 338 338 337 340 346 347 346 347 346 348 348 345 346 348 345 341 343 343 347 353 355 356 356 356 357
328 330 332 330 328 328 329 331 329 328 327 328 328 332 336 335 337 337 337 337 337 338 338 338 341 344 347 348 347 347 348 348 349 349 350 350 353 354 359 360 360 359 358 358
329 329 329 331 330 332 329 329 331 332 329 329 330 330 329 329 330 332 336 334 338 339 339 339 344 342 349 350 349 349 349 350 350 350 352 354 357 360 361 362 361 361 358 356
327 328 329 330 331 330 330 332 340 336 332 329 329 327 327 338 336 333 330 332 333 334 333 341 342 345 347 353 352 351 351 351 351 352 353 355 358 361 362 362 362 359 355 354
329 327 328 331 329 329 332 334 344 342 342 341 340 342 339 336 335 334 333 331 330 330 328 334 338 346 351 353 354 354 353 354 352 354 355 357 361 363 362 361 359 356 354 351
328 332 333 339 333 342 345 344 344 343 341 341 340 339 337 341 342 342 342 341 340 334 330 331 331 339 345 350 351 357 356 361 359 361 362 363 364 364 360 359 356 355 353 350
333 332 339 339 340 340 341 344 342 342 340 339 340 338 345 346 346 345 344 343 345 344 341 339 338 338 339 347 353 360 361 362 364 367 368 367 365 361 356 353 354 353 350 348
333 332 332 333 333 337 339 342 347 350 349 348 350 349 349 348 348 351 352 349 346 350 346 349 354 351 352 359 360 363 363 366 367 366 365 363 360 354 348 351 351 350 347 345
331 330 333 336 332 334 337 346 348 349 350 350 348 350 350 350 351 355 356 357 356 356 359 360 359 362 363 363 364 364 366 365 364 362 359 354 353 349 347 348 347 346 344 342
331 328 331 330 326 332 344 343 346 347 347 348 350 350 351 352 355 355 356 356 359 362 362 363 363 364 364 364 362 359 357 356 358 355 353 350 348 345 346 345 343 343 342 340
328 327 325 325 326 327 331 337 337 340 342 343 345 346 347 347 349 352 355 357 358 360 361 361 359 359 358 358 356 353 351 347 345 346 349 345 346 344 342 341 341 341 341 340
326 325 325 324 324 325 325 325 326 326 328 333 339 342 343 344 345 345 344 346 348 349 352 353 353 353 353 350 348 345 341 338 343 347 345 344 344 343 340 338 339 339 338 336
325 324 324 325 324 324 326 326 324 325 325 325 325 329 334 337 340 342 344 345 345 345 347 347 346 345 346 345 341 340 342 344 343 343 341 340 337 338 337 336 335 333 333 334
323 323 323 324 323 324 325 325 326 327 325 325 325 325 325 329 334 341 341 340 341 343 345 343 341 343 341 341 344 344 344 345 345 345 342 340 336 334 331 329 328 326 328 327
323 323 324 324 324 323 322 323 322 328 328 327 325 326 324 322 327 335 339 341 342 341 342 342 341 335 338 338 338 338 338 338 339 338 338 336 335 335 333 330 330 327 324 321
323 323 323 324 325 326 325 323 323 323 325 325 327 328 329 326 321 326 334 337 337 337 336 337 338 338 338 339 337 336 334 335 334 333 333 332 331 332 333 332 330 329 327 325
318 320 320 318 319 321 324 325 326 324 316 318 319 329 328 326 330 331 331 331 328 324 327 334 335 330 336 336 336 335 332 331 331 332 332 331 331 331 330 330 330 329 328 327
323 324 324 323 323 325 325 325 326 327 327 327 322 322 325 328 325 321 324 323 326 325 327 327 323 322 325 325 324 328 325 326 326 329 331 330 329 329 329 328 328 328 327 327
322 323 323 323 323 324 324 324 324 325 325 326 327 327 327 327 328 328 327 328 328 328 328 329 329 330 330 330 329 328 330 330 330 330 328 328 326 327 327 327 327 326 325 325
320 320 321 321 319 318 319 320 322 324 324 324 325 325 326 325 325 326 326 325 325 324 326 327 326 325 324 324 324 323 327 328 328 327 323 327 327 326 327 327 326 326 325 325
320 320 320 320 320 320 319 318 318 319 320 323 323 323 322 323 324 322 321 321 322 323 321 318 318 319 320 321 320 320 321 322 325 324 324 325 324 325 323 323 324 324 324 324
318 317 317 320 319 319 320 320 319 319 320 320 321 322 321 321 322 320 318 317 319 320 321 317 316 315 313 318 317 317 317 317 317 316 320 325 323 320 320 320 320 320 319 322
317 317 315 315 316 316 316 318 317 318 319 316 318 319 318 317 318 320 321 320 318 317 317 318 318 317 317 318 317 316 316 316 315 315 314 315 315 314 315 315 314 318 321 319
315 314 312 312 311 312 311 312 315 313 316 315 315 316 316 317 317 317 317 317 317 317 317 318 318 318 318 317 318 317 317 316 315 315 314 313 312 312 313 313 313 312 312 315
311 310 310 309 309 309 309 309 310 310 311 311 311 311 312 315 316 316 316 316 315 316 317 317 317 317 316 316 317 317 317 317 317 316 315 315 315 315 315 315 314 312 312 312

GFSNGP_850_thetae_036.txt.gz
Theta_e
319 323 324 325 326 325 322 322 323 321 319 320 320 325 333 339 340 341 341 341 341 341 341 343 345 345 346 345 346 347 348 349 349 350 349 348 347 346 341 340 341 341 344 344
325 324 324 325 325 326 325 324 323 320 321 319 321 323 327 335 340 339 338 339 340 339 340 343 344 346 346 346 346 347 348 348 349 349 350 349 346 344 345 340 341 344 345 345
322 324 324 325 326 326 325 324 323 322 321 321 323 328 329 335 338 336 337 339 339 339 339 343 345 347 347 347 347 348 348 348 349 348 348 348 348 345 342 343 343 344 348 350
320 323 325 324 325 326 324 325 326 323 322 323 323 326 329 329 329 336 336 337 338 341 343 344 345 347 347 347 348 348 350 351 349 349 347 348 348 347 344 343 345 345 350 353
322 324 325 328 327 325 325 326 326 327 324 323 326 327 330 333 331 333 337 336 336 337 340 346 345 346 347 347 347 349 350 350 349 348 347 347 348 347 346 346 347 348 352 354
322 325 327 326 328 326 326 327 333 327 326 326 323 326 322 330 329 330 331 333 334 336 337 338 336 338 346 346 346 346 347 347 349 348 348 347 348 350 351 352 350 352 356 357
322 327 323 325 326 326 327 326 340 337 330 327 331 325 336 336 334 331 328 329 330 335 336 336 340 344 346 344 346 344 345 345 349 350 348 347 348 353 354 357 358 357 359 357
326 327 328 330 333 326 327 342 340 339 338 337 338 338 339 338 338 338 334 332 332 331 333 334 335 334 340 345 342 343 348 348 347 349 349 351 352 355 358 358 359 362 358 353
330 334 328 330 328 328 339 340 342 340 339 338 338 345 344 344 343 342 341 338 336 334 331 331 330 330 331 333 338 343 349 349 349 351 352 354 356 359 360 358 359 357 355 348
329 330 328 330 326 330 341 349 350 343 340 340 347 348 350 351 349 345 342 340 341 342 339 335 332 332 332 336 342 349 353 354 354 354 355 356 360 360 359 357 357 354 351 347
328 327 328 329 325 328 345 348 349 350 351 351 350 353 353 354 353 351 348 343 343 344 343 339 338 339 342 345 346 357 358 361 360 361 361 362 364 363 360 355 353 350 346 341
329 324 328 326 325 326 331 335 342 348 349 350 352 354 354 355 355 353 348 349 352 355 360 360 360 357 353 357 358 357 361 362 359 358 359 359 359 357 352 347 338 348 343 341
327 326 324 325 325 325 326 327 330 336 340 346 347 349 352 354 355 354 353 353 355 358 361 363 363 360 362 363 361 360 359 357 357 356 353 351 349 343 334 332 340 345 344 342
325 326 325 325 325 325 325 325 325 326 328 336 341 344 345 345 344 345 346 348 350 353 353 352 353 352 350 351 352 351 350 350 351 348 348 347 342 339 343 344 344 342 342 340
326 326 324 325 325 325 326 326 325 325 325 326 333 338 341 342 344 345 346 346 344 344 345 344 342 344 345 345 345 345 345 345 343 335 332 333 333 337 342 341 341 341 339 336
324 324 324 325 325 324 324 325 324 324 325 326 325 330 338 341 341 340 342 341 339 340 341 340 338 335 334 339 340 339 336 333 332 334 340 341 341 340 339 339 337 336 335 333
324 324 323 323 323 323 325 327 327 327 327 328 329 322 324 336 338 339 339 339 339 337 334 337 339 339 337 334 335 340 334 329 337 338 336 334 332 332 334 328 327 326 328 328
323 324 325 326 325 325 324 323 322 322 326 326 320 319 325 328 335 334 332 333 337 338 338 338 337 337 336 334 332 332 335 336 336 337 338 335 334 333 331 329 328 322 323 321
321 321 321 322 322 323 326 322 319 323 323 329 326 327 326 326 330 326 324 322 323 324 327 329 332 334 336 335 333 333 334 334 334 335 335 335 334 333 332 332 330 327 326 324
322 321 321 323 325 325 326 326 326 326 326 326 325 328 328 327 325 324 322 322 322 322 327 325 321 324 325 327 327 328 331 331 331 329 326 331 328 324 328 330 330 329 328 326
320 322 323 323 324 324 323 324 325 326 326 326 327 327 328 326 324 326 327 327 328 327 326 325 323 327 328 327 324 324 327 329 328 328 325 325 329 329 329 329 329 327 327 327
320 320 320 319 319 319 319 320 323 324 324 325 325 325 326 326 324 323 324 324 320 317 318 321 320 321 320 320 325 325 328 329 327 327 326 328 328 327 327 327 326 326 326 326
320 320 319 320 320 319 318 319 319 321 322 322 322 323 322 321 321 321 321 322 321 318 318 316 315 316 319 318 318 321 326 329 328 327 326 326 326 326 325 326 326 326 326 325
315 314 312 315 319 318 317 318 316 317 318 319 319 319 321 321 319 317 316 316 316 319 318 317 316 315 315 318 317 317 316 318 320 322 325 324 323 324 320 319 320 323 321 321
313 313 312 311 310 310 310 311 316 316 315 314 314 315 317 319 320 320 319 318 318 317 318 318 318 318 318 318 317 316 316 315 315 315 316 317 317 322 321 321 321 320 320 321
309 309 309 309 309 308 309 310 309 310 314 314 314 314 315 317 316 317 317 317 317 317 318 317 317 317 317 317 317 317 316 315 315 314 314 313 313 313 313 312 312 312 312 314
307 307 308 308 308 308 308 308 308 308 308 310 312 312 312 313 312 312 312 313 315 315 315 314 315 315 315 315 315 316 316 317 317 316 315 315 314 314 313 313 313 313 312 312